Terug naar catalogus

COSMOS 2546

ActiefNavigatieHEO
NORAD 45608·PAYLOAD·🇷🇺 Russia

Gelanceerd May 22, 2020 vanaf Plesetsk Cosmodrome

Loading…

Volgende Passages (komende 24 uur)

TLE

VerouderendSource: Space-Track

Epoch: Aug 31, 2026, 07:05 UTC

1 45608U 20031A   26243.29559994 -.00000360  00000-0  00000-0 0  9998
2 45608  63.1638  56.8572 7115328 266.6524  17.3178  2.00576418 45978

Volg COSMOS 2546 in realtime met AllMySat

Download on the App Store